New Castle, VA (24127)

11:43 PM EST on February 09, 2016 (GMT -0500)
Craig County, Va | | Change Station
CLOSE
Current Station
Personal Weather Station
Location: New Castle, VA
Elevation: 1440 ft
Nearby Weather Stations

Elev 1440 ft 37.45 °N, 80.11 °W | Updated 2 seconds ago

Overcast
Overcast
23.6 °F
Feels Like 16 °F
N
5.8
Wind Variable Wind from ENE
Gusts 5.8 mph

Today
High -- | Low -- °F
--% Chance of Precip.
Yesterday
High -- | Low -- °F
Precip. -- in
Pressure 29.83 in
Visibility 10.0 miles
Clouds Mostly Cloudy 4200 ft
Windchill 16 °F
Dew Point 14 °F
Humidity 65%
Rainfall 0.00 in
Snow Depth Not available.
7:16 AM 5:52 PM
Waxing Crescent, 3% visible
METAR KROA 100354Z 28013G23KT 10SM BKN042 M04/M12 A2980 RMK AO2 SLP101 T10391122
Pressure 29.83 in
Visibility 10.0 miles
Clouds Mostly Cloudy 4200 ft
Windchill 16 °F
Dew Point 14 °F
Humidity 65%
Rainfall 0.00 in
Snow Depth Not available.
7:16 AM 5:52 PM
Waxing Crescent, 3% visible
METAR KROA 100354Z 28013G23KT 10SM BKN042 M04/M12 A2980 RMK AO2 SLP101 T10391122
Winter Storm Nacio, the third winter storm in five days to affect the Northeast, is bringing pockets of locally heavy snow to parts of the Ohio Valley, Appalachians and mid-Atlantic states Tuesday. Winter storm warnings are posted for parts of southern Pennsylvania, southern Ohio and the higher peaks of the Appalachians. Winter weather advisories, generally for lighter snow accumulations, stretch from northeast Alabama and far north Georgia to southern Connecticut and Long Island.

10-Day Weather Forecast

Almanac

Astronomy

Feb. 09, 2016 Rise Set
Actual Time
Civil Twilight
Nautical Twilight
Astronomical Twilight
Moon
Length of Visible Light
Length of Day
Tomorrow will be .
, % of the Moon is Illuminated

Today's Extremes

State Highs State Lows

Community

WunderPhotos

Upload Photos

1,891,810 photos uploaded!

WunderBlog® & News

Nearby

Air Quality

  Air Quality AQ Index Pollutant
Not available.

Snow Depth

Station Depth Elevation

Earthquake Activity

City Distance Mag. Time & Date
Minimum magnitude displayed is 2.5.

Coastal Water Temperatures

Place Temperature

Stations

Nearby Weather Stations

Station Location Temp. Windchill Dew Point Humidity Wind Precip. Elev Updated Type
                   

Watches & Warnings

There are currently no watches in effect.